Theta_e
316 317 317 317 318 318 318 318 318 319 319 320 321 323 324 325 326 327 329 331 331 332 332 332 332 332 332 332 333 333 332 332 332 332 332 331 332 331 330 331 331 330 330 330 331 332 331 331 331 331 334 335 332 330 329 329 330 330 330 331 331 331 331 330 330 331 330 328 328 327 327 326 325 325 320 319 319 314 312 315 316 319 321 315 304
316 316 316 317 317 317 317 317 317 317 317 317 318 319 320 321 323 324 326 327 329 331 331 331 331 331 332 332 332 331 331 332 332 332 332 331 331 330 329 330 330 330 331 332 332 332 331 331 331 332 334 334 333 331 330 330 330 329 329 330 330 330 330 329 330 330 329 328 328 328 327 326 326 325 321 320 320 315 311 316 319 318 319 317 310
315 315 316 316 316 316 316 316 316 316 316 316 316 317 318 319 320 322 323 325 327 329 330 331 331 331 331 331 331 331 331 332 332 332 332 331 331 330 329 328 329 330 331 332 332 331 331 331 332 332 333 333 333 332 330 330 330 330 329 329 329 330 330 330 331 331 329 327 327 327 327 326 325 324 321 320 322 318 311 314 319 317 316 315 314
314 315 315 315 315 315 315 315 315 315 315 315 315 315 316 318 319 319 320 322 324 326 328 330 331 331 331 331 331 331 331 332 332 331 331 330 331 330 329 329 329 330 330 331 331 331 331 332 332 332 331 331 332 331 330 330 330 330 329 329 329 329 329 330 330 330 330 328 326 326 326 327 325 324 321 320 321 319 313 312 315 316 315 313 313
314 314 314 314 314 314 314 314 314 314 314 314 314 314 315 315 316 317 319 320 322 323 325 328 330 330 330 331 330 330 332 332 331 330 331 331 331 331 331 331 331 330 331 331 330 330 330 331 331 331 331 329 329 330 330 331 331 330 330 330 330 330 329 329 329 329 329 328 326 324 325 326 324 322 321 319 320 320 315 312 314 315 315 313 311
313 313 313 314 314 313 313 313 313 313 313 313 313 313 314 314 314 315 317 319 320 322 324 326 328 330 330 330 330 330 332 332 330 329 330 331 332 331 331 332 332 331 331 331 331 330 330 330 332 331 330 329 330 330 331 331 331 332 332 330 330 330 329 329 328 328 328 328 327 324 323 324 322 320 320 318 319 320 317 314 314 314 314 314 312
312 313 313 313 313 313 312 312 312 312 312 312 312 312 312 313 313 313 314 316 317 319 321 324 326 328 329 329 329 329 330 330 329 329 329 331 332 332 331 332 332 331 331 331 331 331 330 331 331 330 329 331 330 329 331 332 332 333 332 330 329 329 329 328 327 327 328 327 328 325 322 322 321 319 319 319 318 319 317 316 316 315 315 314 313
311 312 312 312 312 312 312 311 312 312 311 311 311 311 311 311 311 311 312 313 313 314 316 319 323 327 328 329 329 328 329 330 329 329 330 331 332 332 332 331 331 331 331 331 331 331 331 331 330 329 329 331 330 329 331 333 332 332 331 330 329 328 328 328 328 328 328 328 328 326 322 321 320 318 318 319 318 318 317 316 316 315 316 316 314
311 311 311 311 311 311 311 311 311 311 311 310 310 310 310 310 310 309 310 310 310 310 312 314 318 322 325 326 327 328 329 329 328 328 329 330 330 331 331 331 331 331 330 330 330 330 330 330 330 330 331 332 332 331 331 330 330 330 331 330 329 327 327 329 330 330 329 328 328 326 323 322 320 318 319 318 317 318 317 316 316 316 316 316 316
310 310 310 310 310 310 310 310 310 310 310 310 310 309 309 309 309 308 308 308 307 307 308 310 312 315 318 321 323 325 325 325 326 327 328 329 330 330 330 330 330 330 330 330 329 329 330 331 331 332 332 332 332 331 330 330 330 330 330 329 328 327 328 329 330 330 329 328 327 326 326 324 322 320 320 319 318 317 317 316 317 316 316 316 317
309 309 309 309 309 309 309 309 309 309 309 309 309 309 308 308 308 307 307 307 306 306 305 306 308 309 312 314 318 320 319 319 323 326 327 329 329 329 329 329 330 330 330 330 330 330 330 331 331 331 331 331 331 331 330 330 330 330 329 329 328 328 328 329 330 330 328 329 329 328 327 326 324 322 321 320 319 318 318 318 317 317 317 317 317
308 309 309 308 308 308 308 308 308 308 308 308 308 308 308 307 307 306 306 306 305 305 304 304 304 305 307 309 312 315 315 315 318 321 324 327 328 328 328 329 330 331 331 330 330 330 330 330 330 330 330 330 330 331 330 330 330 330 329 329 329 330 329 329 330 330 329 329 330 329 327 327 326 325 324 323 321 320 319 318 318 318 318 317 317
308 308 308 308 308 308 308 308 308 308 308 308 308 308 307 307 306 306 306 305 305 304 304 303 303 303 303 304 306 310 311 310 312 315 318 322 325 326 327 329 331 331 330 328 328 329 329 329 329 329 329 329 329 330 330 330 330 329 329 329 329 329 331 330 331 331 330 331 330 328 327 327 327 326 326 326 324 322 321 320 319 319 319 319 318
307 307 307 307 307 307 307 307 307 307 307 307 307 307 307 307 306 306 306 305 305 304 303 303 302 302 302 301 302 305 306 306 308 311 313 317 321 323 325 327 328 329 330 328 328 328 328 328 328 328 329 329 329 329 329 330 330 329 328 327 327 328 330 330 330 330 329 330 330 328 326 325 325 325 326 325 324 324 323 322 321 320 321 321 319
306 306 306 306 306 306 306 306 306 306 306 306 306 306 306 306 306 306 306 305 305 304 303 303 302 302 301 300 300 302 302 302 304 307 310 313 317 320 323 324 325 326 328 329 329 329 328 327 327 328 328 328 329 329 329 329 329 329 327 327 327 328 329 329 329 329 328 329 329 329 327 326 325 325 325 325 324 325 324 323 323 323 324 323 321
305 305 305 305 305 305 305 305 306 306 305 305 305 305 305 305 305 306 306 306 305 305 304 303 302 302 301 300 300 300 300 300 301 304 306 309 312 317 320 322 323 324 326 327 328 328 327 326 327 328 327 327 328 328 328 329 329 328 327 328 329 328 327 328 328 327 328 328 329 329 328 327 326 326 326 326 325 324 324 323 323 324 323 323 322
304 305 304 304 304 304 305 305 305 305 305 305 305 305 304 304 304 304 305 305 305 305 304 304 303 302 301 301 300 299 299 298 299 301 303 305 309 312 316 318 321 323 324 325 326 327 327 326 326 326 326 325 326 327 327 327 327 327 327 328 328 326 324 325 325 325 326 326 327 327 327 326 326 326 326 326 323 323 323 322 322 322 322 322 321
304 304 304 304 304 303 304 304 304 304 304 304 304 304 304 304 304 304 304 304 304 304 304 304 304 303 302 301 300 299 298 298 298 299 301 303 306 309 312 315 319 322 323 324 325 326 326 326 326 326 325 325 326 327 327 326 325 326 327 326 326 324 321 320 321 322 322 323 324 325 325 325 325 325 324 323 322 322 322 321 320 320 319 319 318
303 303 303 303 303 303 303 303 303 304 304 304 303 303 303 303 303 303 303 303 303 303 303 303 303 303 303 302 301 300 299 298 297 298 299 301 304 307 311 313 314 316 320 323 324 324 325 326 326 325 324 325 327 328 328 328 326 325 325 324 325 324 320 318 318 319 318 319 320 320 320 320 320 319 319 319 319 320 321 321 321 319 318 318 318
302 302 302 302 302 302 302 302 303 303 303 303 303 302 303 302 302 302 302 302 302 302 302 302 302 302 302 302 301 300 300 298 297 297 298 299 301 305 308 310 310 311 316 321 323 322 323 323 323 323 323 325 328 327 327 328 326 324 324 324 325 324 320 317 317 317 317 317 316 316 315 315 315 315 315 315 316 318 319 319 319 318 317 317 317
302 302 302 302 302 302 301 301 302 302 302 302 302 302 302 302 302 302 302 302 302 302 302 302 301 301 300 300 300 300 299 298 298 297 297 297 299 302 305 307 307 309 313 317 318 316 316 317 318 320 322 324 326 327 326 327 325 322 323 324 324 322 319 317 317 317 317 316 315 315 314 314 314 313 313 312 313 314 315 315 315 315 314 314 313
302 301 301 301 301 301 301 301 301 301 301 302 302 302 301 301 301 301 301 301 301 301 301 301 301 300 300 299 299 299 298 297 297 297 297 297 297 299 301 303 306 307 308 309 310 309 309 310 313 316 318 320 323 323 324 324 323 321 322 323 321 319 317 317 317 316 316 315 315 314 314 313 312 312 311 310 310 310 310 310 310 311 312 312 312
301 301 301 301 301 301 301 301 300 300 300 301 301 301 300 300 300 301 301 301 301 301 301 301 301 300 299 299 298 298 297 297 297 297 297 297 297 297 298 300 303 305 303 301 302 304 306 307 309 311 312 314 316 318 318 318 318 318 319 319 317 316 316 316 316 316 315 315 314 314 313 312 311 310 310 309 308 308 308 307 307 308 310 310 310
301 301 301 301 301 300 301 301 300 300 300 300 300 300 300 299 299 299 300 300 300 301 301 300 300 300 299 299 299 298 297 296 296 296 297 297 297 297 297 297 299 301 300 297 297 299 302 304 305 307 307 309 310 312 313 313 313 314 314 314 313 313 314 314 314 314 313 312 311 309 309 308 308 307 306 305 305 305 305 304 303 304 305 306 306
301 300 301 301 301 300 300 300 300 300 300 299 299 299 299 298 298 298 299 299 300 300 300 300 300 300 300 299 299 298 297 296 296 296 297 297 297 297 297 297 297 298 298 297 296 297 299 301 303 304 305 305 307 308 308 308 309 310 310 310 310 310 309 309 309 308 307 305 304 303 303 303 303 303 303 303 303 302 302 302 301 301 300 301 301
300 300 300 300 300 300 300 300 300 300 300 299 299 298 298 298 298 297 298 298 299 299 299 299 300 300 299 298 298 298 297 296 296 296 296 296 297 297 297 298 298 297 297 297 297 297 297 299 300 302 302 303 304 304 304 304 305 306 306 307 307 306 306 305 304 303 301 300 300 300 300 300 300 300 301 302 302 302 302 302 302 301 300 299 299
300 300 300 300 300 300 300 299 300 300 300 300 299 298 298 298 298 297 297 297 298 298 298 298 299 299 298 297 297 297 296 296 295 295 295 295 296 296 297 297 298 298 297 297 297 297 297 297 297 298 299 300 300 300 301 302 302 302 302 302 302 302 302 302 301 300 299 298 298 298 298 299 299 299 299 300 300 301 302 302 303 302 301 300 300
300 300 300 300 300 300 300 299 299 299 300 300 299 299 298 298 298 297 297 297 297 297 297 297 297 298 297 296 296 296 295 295 295 295 295 295 295 296 296 296 297 297 298 297 297 297 298 298 297 297 297 297 297 297 297 298 298 297 297 298 298 298 298 298 298 298 297 297 297 297 297 297 298 298 298 299 300 300 301 302 302 302 301 301 301
300 300 300 299 299 300 300 299 299 299 299 300 300 298 297 297 298 297 296 295 295 296 296 295 295 296 297 296 295 294 294 294 295 296 296 296 295 295 296 296 296 296 297 298 298 298 298 297 297 296 296 295 295 295 295 295 295 295 295 295 295 295 295 296 296 296 296 296 296 296 296 296 296 296 297 298 299 299 300 300 300 301 301 301 301
300 300 300 299 299 300 300 300 299 299 299 299 300 299 297 297 297 297 296 295 295 295 294 294 293 294 295 295 294 293 293 294 295 297 297 296 296 296 296 296 296 296 296 297 297 296 295 294 294 294 294 294 294 293 294 294 295 295 295 295 295 295 295 295 295 295 295 295 295 295 295 295 295 295 296 296 297 298 298 299 299 300 300 300 300
300 300 300 299 299 299 300 300 299 299 299 299 299 299 299 298 297 297 296 295 295 294 294 293 293 293 294 294 294 293 293 294 294 295 296 297 297 296 296 296 296 296 296 296 295 294 293 293 292 292 292 292 293 293 293 293 294 294 294 294 294 295 294 294 294 294 294 294 294 294 294 294 294 295 295 296 296 297 297 298 299 299 300 300 300
300 300 300 300 300 299 299 300 299 299 299 299 299 299 299 298 298 298 297 297 296 295 294 294 294 294 294 293 293 293 293 294 294 294 295 296 296 297 296 296 296 295 295 295 294 293 293 292 292 292 292 292 292 292 292 292 292 293 293 293 293 293 293 293 293 294 294 294 293 293 293 293 294 294 295 296 296 297 297 298 298 298 298 299 299
300 300 300 300 300 299 299 300 299 299 299 299 299 298 298 298 298 298 298 298 297 296 295 294 294 294 294 293 293 293 293 294 294 295 295 295 296 297 297 296 296 296 296 295 294 293 293 293 292 292 292 292 292 292 292 292 292 292 292 292 292 292 292 292 293 293 293 293 293 293 293 293 294 294 295 295 296 296 297 297 297 297 297 297 298
300 300 300 300 300 300 300 300 299 298 299 299 299 298 298 298 298 298 298 298 297 297 296 295 294 294 294 293 293 293 293 294 294 295 295 295 296 296 297 297 297 297 296 296 295 295 294 293 293 292 292 292 292 292 292 292 292 292 292 292 292 292 292 292 293 293 293 293 293 293 293 293 294 294 295 295 295 296 296 297 297 297 297 297 298
300 300 300 300 300 300 300 300 299 298 298 299 299 298 298 298 297 297 297 297 297 297 297 296 295 294 294 294 294 293 294 294 294 294 295 295 296 296 297 298 297 297 297 296 296 295 295 294 294 293 293 292 292 292 292 292 292 292 292 292 292 292 292 292 292 293 293 293 293 293 293 294 294 295 295 295 295 295 296 296 296 297 297 297 297
300 300 300 300 300 299 299 299 299 298 298 298 298 298 298 297 297 297 297 297 297 296 296 296 296 294 294 294 293 293 293 293 293 294 294 295 296 296 297 297 297 297 297 296 296 295 295 295 295 294 293 293 292 292 292 292 292 292 292 292 292 292 292 292 292 292 293 293 293 293 293 293 294 294 295 295 295 295 295 295 295 296 296 296 296
300 300 299 299 300 300 299 299 298 298 298 298 298 298 298 298 297 297 297 297 296 296 296 296 295 294 294 293 293 293 293 293 293 293 293 294 295 296 296 296 296 296 296 296 296 295 295 295 295 294 294 293 293 293 292 292 292 292 292 292 292 292 292 292 292 292 292 292 293 293 293 293 293 293 294 294 294 294 294 294 294 294 294 295 295
300 300 298 298 299 300 299 298 298 298 298 298 298 298 298 297 297 297 297 296 296 296 296 295 295 294 294 293 293 293 293 293 293 292 293 293 294 295 295 295 296 296 296 296 295 295 295 295 295 294 294 293 293 293 293 292 292 292 292 292 291 291 292 292 292 292 292 292 292 292 293 293 293 293 293 294 294 294 294 294 294 294 294 294 295
300 300 298 297 298 299 298 298 298 298 298 298 298 298 297 297 297 297 297 296 296 296 296 295 295 295 294 293 293 294 294 293 293 293 292 293 293 294 294 295 295 295 295 295 295 295 295 295 294 294 294 293 293 293 292 292 292 292 292 292 292 292 292 292 292 292 292 292 292 292 292 293 293 293 293 293 293 293 293 293 294 294 294 294 294
299 300 299 298 298 298 298 298 298 298 298 298 298 298 297 297 297 297 297 296 296 296 296 295 295 295 294 293 293 294 294 294 293 293 293 293 293 293 294 294 294 294 295 295 295 295 295 294 294 294 294 293 293 293 293 292 292 292 292 292 292 292 292 292 292 292 292 292 292 292 292 293 293 292 293 293 293 293 293 292 293 293 294 294 294
299 299 299 298 298 298 298 298 298 298 298 297 297 298 297 297 297 297 296 296 296 296 295 295 295 295 294 293 293 294 294 294 293 293 293 293 293 293 293 293 294 294 294 294 294 294 294 294 293 293 293 293 293 293 293 292 292 292 292 292 292 292 292 292 292 292 292 292 292 292 292 292 292 292 292 293 293 293 293 293 293 293 293 293 293
299 299 298 298 298 298 298 298 297 297 297 297 297 297 297 297 297 297 296 296 296 296 296 295 295 295 294 293 293 294 294 294 293 293 293 293 293 293 293 293 293 293 293 293 293 293 293 293 293 293 293 293 293 293 293 293 293 292 292 292 292 292 291 291 291 292 292 292 292 291 291 291 292 292 292 293 293 293 293 293 293 293 293 293 293
299 299 298 298 297 297 297 297 297 297 297 297 297 297 297 297 297 297 296 296 296 295 296 295 295 295 294 294 294 294 294 293 293 293 293 293 293 293 293 293 293 293 293 293 293 293 293 293 293 293 293 293 293 293 293 293 293 292 292 292 292 292 292 292 291 291 292 292 291 291 291 292 292 292 292 292 292 292 292 293 293 293 293 293 293
298 298 298 298 298 297 297 297 297 296 296 296 296 296 297 297 297 297 297 296 296 295 296 296 295 295 295 295 294 294 294 294 293 293 293 293 293 293 293 292 292 293 293 293 293 293 293 293 293 293 293 293 293 292 292 292 292 292 292 292 292 292 292 292 292 292 292 292 292 291 291 291 292 292 291 291 292 292 292 292 292 292 293 293 293
298 297 297 297 298 297 297 297 296 296 296 296 296 296 296 297 297 297 297 296 296 295 295 296 295 295 295 295 294 294 294 294 293 293 293 293 293 292 292 292 292 292 292 292 292 292 292 292 292 292 292 292 292 292 292 292 292 292 292 292 292 292 292 292 292 292 292 292 292 292 291 291 292 292 291 291 292 292 292 291 291 292 292 292 292
298 297 296 297 297 297 297 296 296 296 296 296 296 296 296 297 297 297 297 296 296 296 296 296 296 295 295 295 295 294 294 294 294 293 293 293 293 293 292 292 292 292 292 292 292 292 292 292 292 292 292 292 292 292 292 292 292 292 292 292 292 292 291 291 291 291 291 291 292 292 292 291 291 291 291 291 291 291 291 290 291 291 291 291 291
297 296 295 296 297 297 296 296 296 296 296 296 296 296 296 296 296 297 297 297 296 296 296 296 296 296 295 295 295 295 294 294 294 293 293 293 293 293 292 292 292 292 292 292 292 292 292 292 292 292 292 292 292 292 292 292 292 292 292 292 292 291 291 291 291 291 291 291 291 291 291 291 291 291 290 290 290 290 290 290 290 290 290 291 291
296 295 295 296 296 297 296 296 296 296 296 296 296 296 296 296 296 296 297 297 296 296 296 296 296 296 295 295 295 295 295 294 294 294 293 293 292 293 292 292 291 291 292 292 291 291 291 292 292 292 292 292 292 292 292 292 292 292 292 291 291 291 291 291 291 291 291 291 291 291 290 290 290 290 289 289 289 289 289 290 290 290 291 291 292
295 295 296 296 296 296 296 296 296 296 296 296 295 295 296 296 296 296 296 296 296 296 296 296 296 296 295 295 295 294 294 294 294 294 293 293 293 293 292 292 292 291 291 291 291 290 290 291 291 291 291 291 291 291 291 291 291 291 291 291 290 290 290 290 290 291 291 291 291 291 290 290 290 289 289 288 288 287 287 288 288 289 290 291 291
295 296 296 296 296 296 296 296 296 296 296 296 295 295 295 296 296 296 296 296 296 296 296 296 296 296 295 295 295 295 295 294 294 294 293 293 293 293 293 292 292 292 291 291 291 290 290 291 290 290 290 290 290 290 290 291 290 290 290 290 289 289 290 290 290 290 290 290 290 290 290 290 289 289 288 288 287 287 287 287 287 288 289 290 291
296 296 296 296 296 296 296 296 296 296 296 295 295 295 295 296 296 296 295 295 296 296 295 296 296 295 295 295 295 295 295 294 294 294 294 293 293 293 293 293 292 292 292 291 291 291 291 291 290 290 290 290 290 289 290 290 290 290 289 289 289 289 290 290 290 290 290 290 289 290 290 290 289 288 288 287 287 287 288 287 287 287 288 290 291
Wind_Speed
14 14 14 14 15 15 16 16 15 16 17 16 16 16 17 17 18 19 19 19 18 18 17 19 20 19 19 19 18 19 19 19 21 20 22 24 23 26 31 28 27 27 25 25 27 26 27 27 26 24 20 19 22 24 26 27 26 21 18 18 16 18 18 13 8 6 9 14 15 16 20 20 19 19 17 19 21 20 18 17 18 19 16 16 19
14 15 15 16 16 16 16 16 16 17 18 17 16 17 18 18 19 19 20 20 20 20 19 20 21 21 20 19 19 20 20 20 20 18 20 23 24 27 29 28 27 25 21 23 25 24 24 25 25 24 21 20 22 24 27 28 27 24 23 22 19 20 21 17 12 9 10 14 16 16 20 22 20 20 19 19 20 21 20 18 18 19 17 17 18
15 15 16 17 17 17 17 17 17 18 18 18 18 19 19 19 19 19 20 20 20 22 22 21 22 22 21 20 19 19 19 19 19 18 19 20 21 25 27 26 26 24 22 23 24 22 22 24 25 24 22 22 22 24 26 26 25 24 24 24 18 15 18 17 14 14 13 15 17 17 19 21 20 20 20 19 19 20 21 20 18 18 18 18 18
17 17 17 18 18 18 18 18 18 19 19 19 19 20 20 19 19 19 20 20 20 22 23 23 23 23 22 21 21 19 18 19 19 18 18 18 19 22 24 23 25 26 25 25 24 23 24 26 26 25 25 24 23 25 26 24 23 23 23 23 18 13 15 18 17 16 14 13 16 18 19 20 20 20 20 20 19 19 20 20 19 18 18 19 18
18 18 18 18 18 18 19 19 19 20 20 20 21 20 20 20 20 20 20 21 20 21 23 23 23 23 23 22 21 20 16 16 18 18 17 16 18 20 21 21 23 25 24 24 23 24 27 29 26 23 24 26 25 25 26 25 24 24 23 23 19 15 15 19 20 19 16 14 15 17 19 19 19 20 20 20 19 18 19 20 19 18 18 18 18
18 18 18 18 19 19 20 19 20 21 21 21 21 21 21 21 21 21 21 21 21 21 22 23 23 23 24 23 22 19 15 15 18 20 19 18 17 19 20 19 20 22 22 23 24 25 26 28 27 24 25 26 27 26 25 25 25 24 24 24 19 15 16 17 19 20 20 18 16 16 19 21 19 19 19 20 20 19 18 19 19 19 19 18 17
18 18 18 19 19 20 20 20 21 22 22 22 21 21 21 21 21 21 21 22 22 22 22 23 24 24 23 23 23 20 17 17 20 21 22 19 17 18 19 19 18 18 19 21 22 22 23 24 25 26 27 27 26 26 25 24 24 23 26 27 22 17 17 17 18 21 22 21 18 17 18 19 19 19 18 19 20 18 18 18 18 18 18 18 17
18 18 18 19 20 20 20 20 21 22 22 22 22 22 21 21 22 22 22 22 23 24 25 24 23 24 23 23 24 22 18 18 20 20 18 16 17 18 19 20 20 18 18 19 20 23 24 23 25 26 26 25 25 25 26 27 26 25 26 27 24 21 22 21 21 21 19 18 18 18 18 17 18 19 18 19 19 18 18 18 17 17 17 17 18
18 18 19 20 20 20 20 20 21 21 22 22 23 23 23 23 23 23 23 23 24 26 27 27 25 22 21 21 23 22 18 17 18 19 18 18 20 19 18 20 21 20 19 19 20 24 24 22 23 23 22 23 24 26 28 29 29 28 27 26 23 23 24 23 21 18 12 9 12 15 16 16 18 18 18 18 19 18 17 18 17 17 17 17 17
18 19 19 20 20 20 20 21 21 21 22 23 24 24 24 24 23 24 24 24 26 27 28 28 27 26 24 22 21 19 15 13 15 16 18 21 22 19 17 20 20 19 19 20 22 24 22 21 23 22 22 22 24 26 28 28 29 30 28 26 23 24 23 20 18 16 11 10 12 14 15 15 17 18 17 17 18 18 17 17 17 17 17 17 17
18 18 19 19 20 20 20 21 21 21 22 23 23 24 25 24 24 24 25 25 25 27 28 29 28 27 26 25 23 19 16 14 13 13 15 19 20 19 19 21 20 18 18 19 22 22 21 22 23 23 24 24 25 27 28 28 29 29 29 27 24 24 23 19 17 15 14 14 14 15 14 15 17 18 18 17 17 17 17 17 17 17 17 16 16
17 17 18 19 19 20 20 21 21 22 23 23 23 24 24 25 25 25 26 27 26 26 27 29 29 28 28 26 23 21 20 18 15 12 11 16 20 22 22 20 18 18 18 18 20 21 22 24 24 24 25 25 24 26 28 29 29 28 28 28 27 25 23 21 19 17 16 14 13 14 16 16 15 15 15 16 15 16 17 18 17 17 17 16 15
16 17 18 19 19 20 21 21 21 22 23 23 23 23 24 25 25 25 26 27 27 26 26 27 27 28 30 29 25 22 23 25 22 18 13 12 16 21 24 21 17 18 20 20 22 24 25 24 22 21 22 23 25 26 27 28 28 26 26 27 28 25 21 20 20 18 17 14 13 17 21 19 14 13 14 15 14 16 18 18 18 18 17 17 16
17 17 18 18 19 20 21 21 21 22 22 22 23 23 24 25 26 25 25 26 27 27 26 26 25 26 28 31 30 24 25 28 27 23 20 16 13 15 20 22 19 17 18 18 19 21 23 23 22 22 23 23 24 26 27 28 26 26 27 26 26 25 21 20 20 18 17 14 13 16 20 22 21 20 20 20 18 18 19 18 19 20 18 17 16
17 18 18 19 19 20 20 21 21 22 22 22 23 23 23 24 25 25 25 26 26 27 27 26 25 25 26 29 31 27 25 30 32 26 23 21 17 15 17 20 21 18 16 14 14 17 20 21 22 24 26 26 25 25 26 26 24 25 27 25 22 20 19 18 18 17 16 14 12 13 15 19 21 22 24 25 23 20 19 18 19 17 15 15 12
18 18 19 20 20 20 20 21 21 22 22 22 23 23 23 23 23 24 23 24 24 25 25 25 25 26 25 26 31 31 28 32 35 29 24 23 20 17 16 17 20 20 20 17 14 15 19 21 22 23 24 25 26 26 25 24 24 26 27 24 19 15 16 18 18 17 17 15 14 15 16 16 18 20 23 25 23 18 14 13 12 9 11 14 13
18 18 19 20 20 20 20 21 21 22 22 23 23 23 23 23 23 23 22 22 23 24 23 24 26 28 26 25 28 31 31 35 38 34 28 24 22 19 15 13 15 18 22 22 18 16 19 20 21 22 22 20 22 25 27 27 26 26 26 22 17 13 12 16 18 17 17 16 15 15 16 15 16 19 20 22 22 19 14 11 9 7 7 7 6
18 18 18 19 20 21 21 21 21 21 22 22 23 23 22 22 23 23 23 22 23 23 22 22 24 26 26 24 26 29 30 35 39 38 32 26 23 20 14 11 11 13 17 22 21 19 21 21 20 20 22 21 21 23 27 29 27 23 20 19 17 13 10 13 16 16 15 15 14 13 14 15 16 17 16 16 20 19 16 13 13 13 10 9 8
17 17 17 18 19 20 21 21 21 21 22 22 22 22 22 22 22 23 23 23 23 23 23 22 22 23 24 26 28 30 29 32 39 41 36 30 25 19 13 11 12 12 13 15 18 16 16 19 21 22 24 24 23 23 25 28 25 19 18 19 17 14 12 13 17 18 16 15 14 13 13 13 13 13 12 13 17 16 12 10 14 17 14 13 14
15 16 17 18 18 19 21 21 21 21 21 21 22 22 22 22 23 22 22 23 24 24 24 24 23 23 24 25 29 31 30 31 38 43 40 35 29 20 13 12 14 15 13 8 12 10 7 10 15 21 25 26 26 24 25 29 24 17 18 23 20 16 15 16 17 18 16 16 15 15 14 13 12 11 10 11 13 14 12 10 11 12 12 11 9
15 16 16 17 18 19 20 21 21 20 21 21 21 22 23 23 23 23 22 22 23 24 24 24 24 24 24 24 25 28 30 31 36 41 41 39 34 25 18 15 14 14 11 3 4 1 1 4 7 15 21 22 23 23 24 28 25 16 14 19 19 18 18 18 18 18 18 19 18 17 16 16 15 14 13 12 11 10 10 10 11 11 11 10 10
14 15 16 17 18 18 19 21 21 21 21 22 22 23 23 23 23 23 23 22 23 24 24 24 24 25 25 25 25 27 30 32 36 39 40 40 38 32 25 18 13 11 11 8 6 6 5 2 2 7 10 12 15 19 20 23 22 14 10 12 16 21 20 18 19 18 18 18 17 16 16 15 14 14 13 13 13 11 11 10 11 12 13 12 11
14 15 15 17 18 18 18 20 21 21 22 22 22 23 23 24 24 24 24 23 23 23 24 24 24 26 26 26 26 27 29 32 36 37 37 37 38 36 33 26 17 12 15 15 12 9 7 5 3 1 2 5 11 13 13 13 12 10 12 15 20 22 20 18 18 17 17 18 16 15 15 14 14 14 13 13 13 13 13 11 10 11 13 14 15
15 14 15 16 17 17 18 18 19 20 22 22 22 22 23 24 25 24 24 24 24 23 23 23 23 25 26 26 27 28 27 29 35 37 36 35 36 35 34 33 27 22 21 21 18 15 13 10 8 7 7 9 13 15 15 14 16 19 20 19 18 17 16 16 15 15 17 17 16 15 14 14 14 14 13 13 12 12 14 13 11 12 12 12 14
14 15 15 16 16 17 18 18 18 18 20 22 23 22 22 23 25 25 24 23 24 23 22 22 22 24 25 25 26 27 25 26 32 37 36 35 35 34 33 32 31 29 28 26 24 22 20 18 16 16 17 17 18 21 22 21 20 21 21 20 17 16 16 17 18 19 19 18 17 17 16 16 17 15 14 14 14 13 14 14 13 13 12 12 12
15 15 16 16 16 17 17 18 17 17 18 21 23 22 23 23 23 23 23 23 23 22 22 22 22 23 24 23 23 24 23 23 28 35 35 33 33 34 33 32 30 30 30 28 26 26 25 24 25 25 24 23 24 26 26 25 23 22 22 21 20 19 20 21 22 24 24 22 20 19 18 17 17 16 16 16 16 14 13 13 14 13 12 13 13
14 15 16 16 16 17 17 17 18 17 15 17 19 21 22 22 21 21 22 22 22 22 23 23 22 21 22 23 22 22 22 22 26 31 33 32 31 31 31 32 31 29 29 28 28 28 28 29 31 32 31 30 30 30 31 30 29 28 27 25 25 24 23 24 24 25 24 24 22 20 18 18 18 17 18 19 17 15 12 12 13 13 13 14 14
13 14 16 16 16 17 17 17 18 18 15 12 13 17 19 19 17 17 19 20 20 20 21 22 22 21 21 23 23 21 21 23 25 26 27 29 30 30 29 29 29 28 27 25 26 28 28 30 33 34 33 32 32 32 34 36 35 33 32 30 29 27 26 26 26 24 22 22 22 20 19 19 18 18 18 18 17 15 14 13 14 13 12 13 13
13 14 15 16 15 16 17 17 17 19 16 11 9 11 15 17 15 13 15 19 20 20 19 21 21 20 18 20 22 21 20 23 24 22 21 23 25 27 27 26 25 26 25 23 24 27 28 30 32 32 32 32 31 30 32 34 34 33 32 30 30 29 29 27 26 24 23 22 22 21 21 21 20 19 18 18 17 16 15 15 14 13 12 12 12
12 13 14 15 15 15 16 16 16 17 18 15 9 7 9 13 14 13 14 16 19 21 21 22 24 23 19 18 20 21 21 23 23 20 20 20 21 22 24 24 22 23 25 26 27 29 29 29 29 29 29 30 30 29 29 30 31 30 29 28 28 28 28 26 24 23 23 23 23 22 22 22 21 20 18 17 16 15 15 15 15 13 12 12 11
12 13 13 13 14 14 15 16 16 16 17 18 16 11 8 7 9 12 13 14 15 17 20 22 24 26 24 21 19 20 23 24 23 21 18 18 18 18 20 21 21 20 23 27 28 27 25 24 24 25 25 26 26 26 26 26 26 26 25 25 25 24 24 22 20 18 19 21 21 20 20 20 19 17 16 15 14 13 13 12 11 10 9 9 9
11 12 12 12 13 13 14 14 15 16 16 16 17 17 15 11 8 9 11 12 12 13 17 22 23 24 27 26 22 21 23 24 24 22 19 16 15 16 16 17 18 18 18 21 23 21 19 18 19 20 22 23 22 21 22 22 22 22 22 22 22 21 20 18 16 15 17 18 18 18 17 16 15 14 13 12 11 11 10 9 9 8 8 8 8
10 10 11 12 12 12 13 14 14 15 16 15 15 16 17 17 16 13 11 12 11 8 12 21 25 25 26 28 24 20 21 22 23 23 21 17 15 14 14 15 16 16 16 15 15 16 16 15 15 16 18 19 19 19 19 19 20 20 20 20 20 19 17 16 15 16 17 17 17 16 15 13 12 11 11 11 10 9 9 8 8 7 8 8 6
9 7 8 10 12 12 13 13 14 15 15 14 15 16 16 16 18 17 16 16 15 10 8 15 24 27 27 26 24 20 20 21 21 22 21 19 16 13 11 12 14 15 15 14 13 13 13 13 13 14 15 16 17 17 17 18 19 19 19 18 18 17 16 15 15 15 15 15 14 13 11 10 9 8 9 9 9 9 9 8 7 7 7 6 5
8 6 8 10 12 12 12 11 13 15 15 14 15 16 16 16 17 17 17 17 17 16 15 16 21 26 27 25 24 23 22 22 21 20 20 20 18 14 10 10 12 13 14 13 13 12 12 12 12 12 12 13 14 15 15 16 17 17 16 16 16 15 15 14 14 13 12 12 12 11 9 8 8 8 9 9 9 9 9 8 7 7 6 5 5
8 8 9 11 11 11 11 11 11 12 12 13 14 15 15 16 16 17 17 17 17 18 19 18 19 23 25 24 24 23 22 22 22 21 20 20 20 16 13 12 12 13 13 12 12 11 11 11 11 11 10 11 12 13 14 14 15 15 15 14 14 14 13 13 12 12 12 11 10 10 9 8 8 8 9 10 10 10 9 8 7 6 5 5 5
8 9 11 11 10 10 11 11 11 11 10 11 14 14 14 15 16 16 16 17 17 17 18 19 18 20 23 24 23 22 22 21 21 20 20 20 20 17 14 14 13 12 12 11 11 10 11 10 10 10 10 10 10 11 12 13 13 13 12 11 11 12 12 12 11 11 10 10 10 9 9 8 7 7 7 8 9 9 8 8 8 7 5 4 3
6 7 9 9 8 9 11 11 11 11 11 11 13 14 13 14 15 15 15 16 17 17 18 18 18 19 22 24 22 21 20 20 20 20 19 18 18 16 14 14 13 12 12 11 10 10 10 10 9 10 10 10 10 10 11 11 11 11 11 12 12 12 12 11 10 9 9 8 8 8 7 7 7 7 8 8 8 7 6 6 6 6 5 4 4
4 5 8 9 7 7 10 11 10 11 12 13 13 13 13 13 14 14 15 16 16 16 17 17 17 17 20 22 21 19 19 20 19 19 18 17 16 16 15 14 14 13 12 11 11 10 9 9 9 9 9 9 10 10 10 10 10 10 10 10 10 9 8 7 7 7 7 7 7 7 7 7 8 8 8 8 8 7 7 6 6 5 5 5 5
5 4 6 8 8 8 8 10 10 11 12 12 12 12 12 12 12 13 14 14 15 15 16 17 16 14 15 19 18 17 17 19 18 18 17 16 16 16 15 14 14 13 12 11 11 10 9 9 9 9 9 9 9 9 9 9 8 7 7 7 7 7 7 7 7 7 7 7 7 7 6 6 7 7 7 8 7 6 6 6 5 5 5 5 4
6 6 5 6 7 8 9 9 9 10 10 11 12 12 12 11 11 12 12 13 14 14 14 16 15 12 12 16 18 16 15 17 17 16 16 15 15 15 15 15 14 14 13 12 12 11 10 10 9 9 9 9 9 8 8 7 7 7 7 7 7 7 7 7 7 7 6 6 7 7 6 7 7 7 6 6 5 4 4 4 4 4 4 3 3
6 6 6 7 8 8 9 9 9 9 9 11 11 11 11 11 10 11 11 11 12 13 12 14 14 12 10 13 16 16 15 15 15 15 15 14 13 13 14 14 14 14 13 13 12 11 11 10 10 9 9 8 7 7 7 6 6 6 6 6 7 7 7 7 6 6 7 7 7 6 6 6 6 6 6 5 5 5 4 3 3 4 4 3 3
6 6 6 7 8 8 8 9 9 9 9 9 8 8 9 10 9 10 10 11 12 12 12 12 12 12 10 10 13 15 15 14 14 14 14 13 12 12 12 12 12 12 12 12 11 11 10 9 9 8 8 7 7 6 6 5 5 5 5 6 6 5 4 5 6 6 7 7 5 5 5 4 4 5 6 6 6 5 4 4 4 3 3 4 3
6 6 6 7 8 8 8 8 9 9 9 9 8 9 10 9 9 9 10 11 12 12 11 11 11 11 10 10 12 14 13 13 13 13 12 11 11 10 10 10 10 10 10 10 10 10 10 8 8 7 7 6 6 6 6 5 5 5 5 5 4 3 3 4 5 6 6 5 3 4 5 5 5 6 5 5 5 4 4 5 6 5 5 5 4
6 6 7 7 7 7 8 8 8 8 10 11 11 11 11 10 9 9 9 10 12 12 11 10 10 10 9 9 10 11 12 12 12 12 11 10 10 9 9 9 9 9 9 8 8 9 9 8 7 7 6 6 5 5 5 5 5 5 5 4 4 4 5 5 4 4 3 3 3 3 3 3 4 5 4 4 4 4 4 5 4 3 3 4 4
6 6 6 7 6 6 7 8 8 8 10 11 12 12 12 11 10 9 8 8 10 11 10 9 9 9 8 8 9 9 10 11 11 11 10 10 9 9 8 8 8 8 8 8 7 7 7 7 7 6 6 6 6 4 4 4 3 3 3 4 4 4 4 4 4 3 2 6 9 8 5 4 3 4 3 4 5 5 4 3 3 4 3 2 3
5 5 5 5 6 6 6 7 8 9 11 11 11 11 11 11 10 10 8 7 8 10 10 9 9 9 9 8 8 8 8 8 9 10 10 10 9 9 8 8 8 7 6 6 7 7 7 6 6 6 5 5 6 6 5 3 2 3 3 3 4 5 5 4 3 4 3 5 8 9 8 7 6 6 5 5 5 4 2 0 0 2 4 4 0
5 5 4 4 5 7 7 8 9 10 11 11 10 10 10 10 10 10 9 8 9 9 9 9 9 9 9 9 8 8 7 7 7 8 8 9 9 9 8 8 8 8 6 5 6 7 7 6 5 5 5 5 4 5 5 4 3 3 3 3 1 1 4 3 3 5 5 4 5 6 6 7 7 6 5 5 5 4 4 3 1 1 3 4 2
4 4 4 4 5 7 8 9 9 10 11 11 11 10 10 10 10 10 9 9 9 9 9 9 9 8 8 8 8 8 7 7 7 6 7 7 8 8 8 8 8 8 8 7 6 6 6 5 4 4 6 6 5 4 4 4 4 4 3 1 2 2 5 4 2 3 2 2 5 5 3 4 5 5 5 4 4 3 3 4 4 2 3 3 2
3 4 4 4 5 7 8 8 10 10 10 11 11 11 10 9 9 9 9 9 10 10 9 9 9 8 7 7 7 7 7 7 7 6 6 6 6 7 8 8 8 8 8 7 6 5 5 5 4 4 5 6 5 4 3 2 3 4 4 4 3 1 6 6 3 3 2 3 5 6 5 4 4 5 5 5 4 3 3 3 3 3 3 3 1
3 4 4 4 6 8 8 8 9 10 10 10 11 10 10 9 9 9 9 9 9 9 9 9 9 8 7 6 6 6 7 7 7 6 6 6 6 6 7 7 8 8 8 7 7 6 6 6 5 5 6 5 4 3 2 3 5 6 7 6 3 2 4 4 4 4 4 4 3 5 6 5 4 4 6 6 5 4 4 3 4 5 6 5 2
Wind_Direction
359 358 357 354 352 351 350 349 347 346 343 336 329 323 321 317 313 312 312 308 301 292 284 281 278 272 269 266 261 259 258 252 247 241 235 234 234 232 230 229 225 221 220 221 220 219 218 219 223 225 224 219 219 223 219 217 230 240 230 216 207 205 202 184 181 209 194 198 206 197 194 192 187 190 187 176 179 185 184 187 195 197 197 203 208
360 359 359 357 356 354 352 351 349 348 346 343 338 332 326 322 317 314 312 310 309 304 293 283 278 274 270 267 265 264 261 253 247 240 234 233 235 234 230 227 226 222 218 218 217 214 213 218 222 221 218 216 218 225 221 214 223 233 231 225 210 195 198 191 182 197 197 196 204 202 194 192 190 192 190 178 175 182 186 186 190 193 193 197 204
2 2 1 359 359 357 355 354 351 350 349 346 342 337 331 326 322 318 314 311 309 306 300 290 281 276 272 268 266 264 259 251 243 236 234 234 232 231 229 226 225 224 221 219 216 213 213 219 222 219 215 215 219 224 220 216 224 231 232 233 221 196 194 193 185 189 193 196 202 200 194 194 196 195 192 183 178 184 190 190 190 194 196 195 199
5 5 3 1 1 359 357 355 354 352 351 347 344 340 336 332 328 323 317 312 308 306 304 297 287 280 274 268 264 263 259 251 246 240 235 234 229 229 231 230 227 227 226 223 220 216 218 221 223 222 217 213 218 223 219 218 223 223 225 229 224 206 195 194 194 193 189 198 205 201 195 194 198 200 195 188 187 188 191 195 196 196 197 197 199
6 6 4 2 2 1 359 357 356 354 352 349 345 342 340 337 333 328 322 316 309 305 305 302 295 285 277 273 269 268 264 253 247 240 232 231 231 229 230 229 228 230 229 227 224 221 224 227 224 220 216 212 215 220 218 217 219 216 222 227 222 219 211 200 196 193 190 198 206 204 194 187 199 208 196 188 190 191 192 197 199 200 199 199 203
7 7 5 4 4 2 1 360 357 356 354 351 348 345 343 341 338 334 329 323 317 309 305 304 301 294 286 284 281 275 270 260 249 239 232 230 231 231 230 228 228 230 230 230 229 226 226 229 224 218 219 218 215 214 213 214 217 216 222 225 220 223 228 212 197 192 194 200 206 208 198 186 196 211 200 188 189 191 193 196 199 202 201 200 205
7 8 6 7 6 4 3 1 359 358 356 353 351 348 346 345 343 341 336 331 327 322 316 310 305 302 296 292 289 284 279 272 260 245 234 229 231 235 234 233 234 233 233 232 231 229 227 229 230 225 222 222 217 212 211 212 213 216 222 225 222 223 231 225 208 197 197 201 202 207 207 193 192 205 202 191 191 192 192 195 198 201 199 200 205
6 8 8 9 8 5 4 1 359 359 357 356 355 353 350 348 347 345 343 340 338 336 335 329 319 309 302 296 294 290 281 271 266 256 243 232 232 238 238 239 241 238 236 234 231 232 231 230 233 230 223 224 222 215 213 215 214 216 221 224 222 224 228 226 214 202 202 210 208 201 205 200 191 199 200 192 193 194 192 193 198 200 197 198 204
6 8 10 10 9 6 5 3 1 360 359 359 359 357 355 353 351 350 349 347 346 347 349 349 345 335 323 313 305 298 286 274 272 269 262 249 238 237 237 238 240 239 237 238 234 234 234 232 231 230 225 225 224 219 218 221 219 217 219 221 219 222 226 221 210 199 191 209 215 203 200 199 192 195 199 196 195 196 193 193 196 200 200 199 205
7 9 11 11 9 7 6 4 2 2 1 1 0 360 359 357 355 354 353 351 351 354 357 358 358 357 352 346 337 326 316 306 292 278 270 259 242 233 237 238 238 237 236 237 238 235 234 233 232 232 230 229 229 225 222 223 223 222 222 220 217 221 224 215 203 195 179 181 202 205 204 204 198 196 200 201 198 197 197 196 198 201 202 202 203
8 10 12 11 9 8 7 6 4 4 3 2 1 2 2 1 0 359 358 357 355 356 0 2 1 1 359 359 360 358 354 342 314 286 272 261 244 235 240 241 237 235 233 234 237 235 232 233 235 236 234 234 234 232 229 227 226 226 224 218 216 222 223 212 198 194 187 184 191 198 204 208 205 201 203 204 200 199 201 202 204 204 205 210 209
10 11 13 12 10 9 8 7 6 6 5 4 3 3 3 3 3 3 2 1 359 358 0 2 3 4 3 2 3 359 354 352 339 316 287 264 251 244 244 244 239 235 234 232 233 233 232 234 238 239 236 233 232 231 231 230 229 228 226 220 219 223 220 207 196 192 191 187 185 191 200 209 212 207 205 204 198 198 207 211 209 209 211 217 224
11 12 13 13 12 10 9 8 8 6 5 5 4 3 5 6 5 5 3 2 2 2 2 3 3 5 4 4 4 357 349 351 348 338 323 288 262 251 245 246 247 242 238 236 236 236 234 231 232 236 237 235 232 228 228 231 229 227 226 221 217 219 216 202 194 192 191 187 184 192 200 207 213 217 219 216 208 206 213 217 213 212 214 214 225
15 13 12 13 13 11 11 10 9 8 7 5 4 4 4 5 6 6 5 4 5 4 3 5 5 5 5 5 6 2 352 351 350 342 334 320 293 269 254 248 249 250 245 238 235 236 234 229 227 230 233 232 230 226 226 231 231 227 225 221 216 217 218 211 204 201 199 195 189 195 205 210 215 224 228 227 226 225 224 226 224 219 215 212 221
19 16 13 13 13 11 11 10 9 9 9 7 7 6 3 4 4 4 5 7 8 7 5 5 6 6 7 5 6 6 357 353 354 348 338 329 313 293 274 258 252 254 252 244 237 233 230 228 225 226 231 234 233 229 225 226 229 228 227 224 220 217 216 213 213 212 209 207 198 192 200 209 214 221 221 218 221 222 218 226 233 225 213 208 202
21 19 16 15 14 11 10 10 9 9 9 9 9 7 5 5 3 0 0 3 6 7 8 9 8 7 7 7 8 8 2 357 358 354 346 339 325 305 286 267 259 257 254 253 252 245 239 235 231 231 234 234 233 231 227 222 223 225 223 219 211 203 200 202 205 208 207 206 204 201 203 205 204 206 208 209 209 203 193 204 220 216 208 207 194
21 20 19 18 16 14 11 10 9 8 9 10 9 8 7 6 4 3 1 359 1 2 4 9 11 8 8 8 8 9 6 3 3 360 353 349 338 322 303 278 265 261 256 254 255 256 253 246 238 238 240 234 227 225 221 217 218 219 216 208 194 182 191 199 199 200 202 200 200 204 205 201 192 191 197 202 201 199 199 197 197 198 186 180 202
20 19 19 17 16 16 13 11 10 10 11 10 9 8 7 6 5 6 5 2 1 360 358 2 8 9 12 11 9 8 7 5 7 6 360 355 349 337 323 301 284 277 268 259 254 258 259 249 235 233 236 232 223 221 219 215 214 214 207 197 189 182 189 201 196 191 193 192 190 190 192 194 195 198 201 202 203 212 223 215 208 212 186 155 198
19 18 16 16 16 16 15 12 11 12 13 13 11 9 8 7 5 5 7 7 5 3 1 0 2 6 11 12 10 10 9 8 11 12 7 2 359 351 341 330 319 317 305 270 253 256 255 240 230 228 229 224 217 219 221 215 214 215 204 194 190 185 185 190 187 179 174 175 176 177 179 184 192 198 200 199 199 203 210 207 205 208 196 181 200
20 18 15 15 17 18 17 14 13 13 12 12 14 12 10 10 8 6 8 8 7 7 7 6 5 5 6 8 9 9 9 9 13 16 15 10 7 3 355 349 343 342 339 288 244 250 246 220 220 224 224 221 218 220 222 218 219 219 206 199 195 185 178 172 166 162 154 147 147 146 143 141 143 148 151 161 173 173 166 164 170 172 168 160 159
19 19 18 17 17 19 20 17 16 16 14 12 14 15 12 11 11 9 8 8 8 8 9 9 9 8 7 7 7 7 7 8 11 17 20 19 16 13 7 2 357 354 359 38 166 176 99 148 195 212 214 214 217 218 218 219 222 222 211 205 191 172 164 155 146 143 138 133 132 130 127 126 124 121 117 114 121 131 133 127 120 119 120 118 113
17 19 21 20 18 19 21 21 20 19 17 14 14 16 14 11 11 11 10 8 9 10 11 11 10 10 10 9 7 6 7 9 12 16 21 24 25 24 20 12 3 2 12 36 74 71 56 55 215 221 217 211 209 211 215 219 224 225 217 200 172 156 150 143 137 136 132 131 133 131 129 127 121 115 110 101 96 93 91 94 103 109 111 110 110
18 20 21 21 20 18 18 21 23 22 20 18 17 18 17 13 11 12 11 9 8 10 12 13 11 11 11 10 9 7 7 10 15 18 21 26 30 33 32 28 25 29 29 24 26 44 51 34 17 318 219 185 179 185 195 201 194 170 160 160 153 148 144 139 139 142 139 135 132 127 125 123 116 111 105 97 91 88 87 91 105 116 116 115 112
21 22 22 22 21 19 18 19 22 21 19 19 18 19 19 17 14 12 12 11 10 11 12 13 13 13 12 11 11 9 7 9 16 20 22 25 30 35 38 39 41 48 50 41 34 47 69 75 72 82 103 122 135 138 138 138 135 131 132 135 135 135 134 132 135 135 127 118 108 98 94 96 97 94 90 91 93 97 100 102 107 114 117 118 113
24 21 22 24 21 20 19 18 21 23 20 18 19 18 19 20 17 13 13 13 12 12 12 12 12 12 11 10 9 9 7 8 14 19 21 24 28 33 38 43 46 51 56 55 50 53 70 87 96 100 103 106 110 111 108 108 114 120 123 123 119 112 109 111 112 106 97 91 88 85 79 81 87 88 89 92 91 92 97 97 95 99 107 113 111
28 23 21 23 22 22 21 17 18 24 22 19 20 19 19 21 20 17 17 16 15 15 13 11 13 15 13 9 8 8 8 8 14 18 19 20 25 30 35 40 45 50 55 58 58 56 60 74 86 92 95 97 98 98 96 94 96 101 104 106 105 101 101 104 102 97 92 90 89 87 84 85 90 93 98 99 92 87 92 96 94 93 96 102 102
29 26 23 22 20 21 22 19 16 20 23 22 22 21 20 22 24 24 23 20 18 19 17 14 15 17 16 13 11 11 10 8 11 16 17 18 21 27 32 35 38 43 47 51 56 57 54 59 70 77 83 86 86 88 90 89 86 85 84 84 86 88 93 97 97 93 92 94 93 93 95 98 98 98 101 100 95 93 99 103 104 103 100 98 96
28 29 26 23 20 18 21 21 18 18 24 30 30 26 24 27 33 35 33 29 26 24 23 20 17 16 17 16 14 13 12 11 11 13 15 17 21 26 30 31 32 36 38 39 47 56 58 57 59 62 67 70 71 72 77 79 78 76 76 77 78 80 82 87 88 86 86 91 94 95 98 99 98 100 102 100 96 97 103 105 105 104 102 100 99
27 30 28 24 20 18 19 20 18 17 20 33 52 48 36 35 43 48 43 38 36 33 32 30 24 19 19 17 13 12 12 11 13 17 17 18 21 27 31 31 33 38 41 39 43 50 54 54 52 51 52 54 54 56 62 68 71 72 73 75 76 76 74 74 75 77 80 84 85 85 88 90 90 92 95 93 90 93 98 98 95 92 93 95 95
23 27 29 25 19 17 17 18 17 16 17 23 40 60 47 37 40 43 41 39 37 35 36 36 30 25 23 18 14 13 13 12 14 18 20 19 20 25 30 32 33 39 45 49 50 50 49 48 48 48 49 51 50 50 53 60 65 67 69 72 74 75 74 72 71 73 77 77 77 78 82 85 84 85 86 85 85 88 91 89 86 84 87 91 93
21 19 22 23 19 15 15 16 15 13 15 16 17 20 29 35 33 29 27 30 33 34 38 38 32 26 23 18 12 12 14 14 14 15 16 18 18 20 24 28 29 32 40 48 51 50 47 46 45 46 49 51 52 53 55 58 61 64 67 69 71 74 76 75 74 76 77 77 77 77 78 79 79 78 79 79 79 81 83 84 84 85 92 98 100
29 21 12 12 16 15 14 14 12 11 13 13 11 11 12 13 13 13 14 17 21 29 38 39 34 27 21 16 11 11 14 14 13 12 10 11 15 16 16 20 24 24 29 39 45 43 40 41 42 42 45 48 50 53 57 60 63 66 68 68 70 72 74 76 80 84 85 85 84 82 80 80 78 76 76 80 81 79 78 82 84 84 87 91 93
29 25 5 358 5 11 12 11 9 9 10 10 10 11 11 8 5 4 5 6 7 18 38 38 34 29 22 17 12 10 14 17 19 18 14 13 19 22 21 20 23 23 24 31 36 35 34 36 36 38 41 45 47 51 58 63 65 67 67 68 68 69 72 78 85 86 84 85 85 84 83 82 78 77 77 78 78 78 77 80 82 80 81 82 86
21 36 25 6 0 5 10 9 6 6 8 6 5 8 10 9 6 4 5 5 3 3 20 28 28 27 23 16 11 9 13 17 21 20 16 12 11 11 15 22 23 23 26 31 33 32 33 33 33 35 39 41 46 52 59 63 65 65 65 66 67 69 74 78 78 77 77 79 79 80 81 83 82 84 85 84 83 80 75 74 75 77 81 84 85
11 36 37 16 1 0 5 5 5 6 5 2 1 4 6 7 5 4 6 6 2 358 358 5 15 20 20 15 13 14 15 16 17 15 12 9 5 358 360 16 23 23 25 30 33 33 35 36 36 37 38 41 47 55 59 61 62 63 64 66 67 70 74 74 72 72 74 75 74 75 77 78 79 82 85 87 86 82 77 75 76 79 82 83 82
8 18 13 2 356 355 357 1 6 4 356 353 358 1 2 4 3 2 6 8 2 357 357 360 5 11 14 14 14 14 14 13 14 14 12 14 16 15 13 16 22 24 25 28 32 35 39 42 44 44 45 49 52 56 59 61 64 66 67 68 68 69 69 70 71 73 75 73 72 74 75 76 79 84 86 85 82 81 81 78 76 80 87 86 86
9 12 2 354 350 347 349 359 3 354 342 345 355 359 359 2 2 1 3 8 6 359 358 2 5 6 8 11 12 11 10 10 12 13 12 13 18 22 21 17 18 22 25 27 30 34 40 45 49 51 54 56 57 60 62 64 66 66 66 69 74 75 75 75 74 75 76 74 72 72 75 76 78 83 88 91 91 89 89 88 85 85 82 77 86
3 11 5 355 341 338 349 359 358 350 346 350 357 358 357 357 360 1 2 6 8 4 1 3 8 8 7 7 6 7 9 11 12 14 14 15 16 18 19 18 19 22 25 25 27 34 42 48 53 57 61 63 64 65 64 63 64 67 71 76 80 81 79 78 77 76 79 80 78 77 78 79 79 78 80 86 88 88 91 96 98 94 79 59 68
2 29 20 4 343 336 349 356 354 350 351 351 352 355 357 356 357 0 1 2 5 6 4 5 9 11 8 6 4 4 7 13 16 16 15 16 17 18 19 21 20 21 24 27 31 39 47 53 60 63 66 68 67 67 69 71 73 77 81 82 82 79 77 77 75 74 75 76 76 75 74 74 77 79 79 82 81 79 77 74 74 83 85 76 75
348 11 17 1 347 341 345 350 354 354 351 348 346 350 357 360 358 358 360 2 4 5 5 6 10 13 13 12 10 7 9 15 19 18 17 20 18 17 21 25 25 26 29 33 37 43 50 56 62 65 68 72 74 76 80 81 79 79 78 76 75 74 75 75 72 71 73 75 77 78 77 76 78 79 81 85 88 88 89 87 83 86 92 97 104
342 348 355 346 340 342 345 351 356 354 348 349 350 351 355 358 357 358 1 3 5 6 4 4 9 17 21 20 18 14 13 18 20 18 19 23 21 20 23 26 26 28 33 37 40 43 46 51 57 61 66 72 75 78 80 79 77 77 76 74 77 78 77 75 73 73 73 72 69 68 70 75 80 79 75 79 86 89 98 108 107 95 88 87 100
333 338 347 345 343 345 347 351 353 351 352 355 355 352 352 351 350 357 4 3 3 6 4 1 5 11 15 21 24 20 17 20 23 20 18 20 20 21 24 25 25 27 31 35 38 41 43 48 52 56 62 67 69 73 76 77 81 83 82 84 89 89 86 86 82 75 72 71 66 64 70 77 81 75 65 65 75 75 75 85 97 104 102 79 62
326 325 332 337 343 344 342 346 351 350 350 353 352 348 349 347 343 351 0 1 2 6 4 360 0 0 357 8 21 20 15 17 20 18 16 18 18 19 21 23 25 26 27 30 33 36 40 46 47 45 48 52 51 55 62 68 76 81 81 85 90 94 109 126 126 111 96 87 73 64 72 85 91 76 58 55 65 63 47 40 48 66 85 84 72
316 323 322 326 338 342 338 345 352 343 333 336 346 351 352 349 346 349 356 359 1 4 2 358 358 356 352 357 9 13 13 15 15 13 15 19 20 19 19 20 22 24 26 28 29 28 31 39 43 43 45 45 43 45 49 53 62 69 71 78 84 84 96 119 124 114 108 107 115 118 112 104 102 96 78 66 74 74 51 40 37 34 42 51 52
313 326 322 322 333 338 333 340 350 339 326 330 344 352 351 349 349 352 356 357 358 359 359 358 358 358 354 352 358 6 10 12 13 12 13 17 21 22 21 18 17 18 22 26 27 23 21 24 32 41 44 45 47 54 52 47 48 55 61 65 67 66 63 59 62 73 65 24 30 80 95 36 38 56 51 36 47 66 66 55 38 22 32 43 49
315 322 316 318 327 329 330 340 346 336 327 332 344 349 347 345 346 348 349 350 349 350 354 359 4 8 5 356 354 2 6 8 11 12 10 11 18 22 21 18 14 13 15 18 18 18 18 18 23 30 35 33 30 29 39 53 55 47 45 49 50 55 68 71 63 56 359 353 10 24 16 358 28 66 46 5 9 33 56 47 2 347 347 16 93
312 313 310 316 321 321 329 340 337 325 323 334 345 345 340 337 338 338 338 339 341 346 353 360 4 12 18 12 2 2 4 4 8 11 12 13 15 16 17 15 9 6 9 9 5 6 12 15 16 18 22 22 14 3 7 30 39 24 42 71 71 78 102 104 62 36 13 3 10 11 5 9 39 67 57 13 0 13 28 5 323 345 308 289 184
317 312 310 316 321 324 332 339 334 327 329 337 342 339 335 334 334 333 335 338 340 344 352 358 359 8 20 21 14 12 13 10 6 8 12 16 15 13 14 13 5 2 7 10 4 1 359 358 0 3 1 3 5 1 356 358 9 36 96 128 114 119 141 131 42 39 58 47 18 6 6 12 20 26 21 1 346 340 329 318 303 216 272 295 338
324 318 317 322 325 327 332 337 336 334 336 338 335 332 335 337 334 333 336 340 341 343 347 351 355 4 16 18 17 21 24 19 13 9 9 12 11 10 11 10 3 359 1 5 8 5 353 344 346 353 351 349 350 347 341 351 17 50 90 88 324 250 195 201 326 17 64 19 1 5 17 20 10 1 353 346 337 317 306 313 314 285 273 296 322
320 314 315 321 324 325 331 338 336 335 341 341 334 332 338 341 337 336 340 342 342 343 343 341 345 356 6 11 15 19 19 15 12 9 5 2 2 2 2 0 358 356 358 359 2 2 355 349 352 358 355 349 342 333 322 327 351 359 360 359 356 218 199 214 261 291 279 318 357 7 2 355 356 350 339 333 332 322 303 307 308 290 276 281 279
302 301 304 315 321 322 329 335 333 334 343 343 334 333 342 345 339 338 343 345 343 342 339 335 336 344 353 1 7 8 2 356 355 359 359 357 353 350 346 348 352 356 357 357 358 357 352 347 350 354 349 342 339 343 329 288 285 299 312 316 302 228 216 234 256 275 289 305 334 348 341 337 343 345 339 334 333 331 325 317 301 279 267 265 240